Location: Oshawa
(43.9000°N, 78.8670°W)
Time: 12:02:43
(UTC-04:00)

Explorer 11/Cluster Stage 4 - Visible Passes

Search period start: 28 March 2015 00:00
Search period end: 07 April 2015 00:00
Orbit: 468 x 1274 km, 28.8° (Epoch: 27 March)

Date Brightness Start Highest point End Pass type
(mag) Time Alt. Az. Time Alt. Az. Time Alt. Az.
28 Mar 9.0 03:49:38 19° SE 03:49:38 19° SE 03:52:50 10° ESE visible
28 Mar 8.6 05:31:55 19° SW 05:35:11 25° S 05:41:34 10° SE visible
29 Mar 9.1 03:41:48 17° SE 03:41:48 17° SE 03:44:14 10° ESE visible
29 Mar 8.6 05:24:07 20° SSW 05:26:39 24° S 05:32:48 10° SE visible
30 Mar 9.3 03:34:04 15° SE 03:34:04 15° SE 03:35:34 10° SE visible
30 Mar 8.6 05:16:21 20° SSW 05:18:06 22° S 05:23:56 10° SE visible
31 Mar 9.4 03:26:22 11° SE 03:26:22 11° SE 03:26:51 10° SE visible
31 Mar 8.6 05:08:41 20° SSW 05:09:34 20° S 05:14:59 10° SSE visible
01 Apr 8.7 05:01:05 18° SSW 05:01:05 18° SSW 05:05:54 10° SSE visible
02 Apr 8.9 04:53:34 15° S 04:53:34 15° S 04:56:41 10° SSE visible
03 Apr 9.1 04:46:10 12° S 04:46:10 12° S 04:47:14 10° S visible
